GW5210 Weather Reports


Display with metric or nautical units.
time (UTC)temp
F
wind
direction
speed
MPH
gust
MPH
rain 1hr
in
rain 24hr
in
rain mn
in
humidity
%
barometer
mb
20260503221346 76 269 1.0 3.0 0.00 0.00 0.00 33 1013.1
20260503220351 76 214 1.0 3.0 0.00 0.00 0.00 33 1013.3
20260503215344 76 258 1.0 2.0 0.00 0.00 0.00 34 1013.4
20260503214349 75 285 2.0 3.0 0.00 0.00 0.00 34 1013.5
20260503213343 75 243 3.0 5.0 0.00 0.00 0.00 33 1013.7
20260503212347 75 225 1.0 3.0 0.00 0.00 0.00 34 1013.7
20260503211351 75 298 2.0 4.0 0.00 0.00 0.00 34 1013.8
20260503210345 75 280 2.0 5.0 0.00 0.00 0.00 34 1013.8
20260503205350 75 332 0.0 3.0 0.00 0.00 0.00 35 1013.9
20260503204344 75 316 1.0 3.0 0.00 0.00 0.00 34 1013.9
20260503203348 74 246 3.0 5.0 0.00 0.00 0.00 34 1013.9
20260503202342 75 304 1.0 3.0 0.00 0.00 0.00 37 1013.9
20260503201347 75 353 1.0 3.0 0.00 0.00 0.00 35 1013.9
20260503200401 75 303 0.0 3.0 0.00 0.00 0.00 37 1014.1
20260503195345 74 283 2.0 3.0 0.00 0.00 0.00 38 1014.2
20260503194350 74 248 1.0 5.0 0.00 0.00 0.00 39 1014.4
20260503193343 74 279 1.0 4.0 0.00 0.00 0.00 40 1014.5
20260503192348 74 338 1.0 4.0 0.00 0.00 0.00 39 1014.6
20260503191343 74 282 0.0 2.0 0.00 0.00 0.00 40 1014.7
20260503190346 74 17 1.0 3.0 0.00 0.00 0.00 39 1014.7
20260503185411 73 71 1.0 4.0 0.00 0.00 0.00 40 1014.8
20260503184404 73 256 1.0 3.0 0.00 0.00 0.00 40 1014.9
20260503183349 72 351 1.0 4.0 0.00 0.00 0.00 42 1015.1
20260503182343 72 358 0.0 3.0 0.00 0.00 0.00 39 1015.2
20260503181348 72 353 1.0 3.0 0.00 0.00 0.00 40 1015.3
20260503180341 72 205 1.0 3.0 0.00 0.00 0.00 44 1015.4
20260503175345 72 292 1.0 3.0 0.00 0.00 0.00 42 1015.5
20260503174351 71 87 1.0 3.0 0.00 0.00 0.00 44 1015.6
20260503173344 71 283 2.0 3.0 0.00 0.00 0.00 42 1015.6
20260503172349 71 321 2.0 3.0 0.00 0.00 0.00 43 1015.7
20260503171343 71 344 0.0 5.0 0.00 0.00 0.00 47 1015.7
20260503170347 70 360 1.0 3.0 0.00 0.00 0.00 44 1015.8
20260503150348 57 129 0.0 1.0 0.00 0.00 0.00 79 1016.4
20260503131342 50 172 2.0 2.0 0.00 0.00 0.00 76 1015.8
20260503130407 50 0.0 0.0 0.00 0.00 0.00 78 1015.8
20260503110347 52 0.0 0.0 0.00 0.00 0.00 68 1015.8
20260503090349 55 151 2.0 5.0 0.00 0.00 0.00 63 1015.5
20260503081350 55 210 1.0 5.0 0.00 0.00 0.00 66 1015.5
20260503080344 55 207 1.0 3.0 0.00 0.00 0.00 67 1015.4
20260503072341 54 221 2.0 3.0 0.00 0.00 0.00 70 1015.4
20260503071345 54 244 1.0 3.0 0.00 0.00 0.00 71 1015.4
20260503070351 54 246 1.0 3.0 0.00 0.00 0.00 71 1015.4
20260503054343 57 255 2.0 3.0 0.00 0.00 0.00 65 1015.4
20260503053347 58 246 2.0 3.0 0.00 0.00 0.00 63 1015.4
20260503052341 58 265 1.0 3.0 0.00 0.00 0.00 63 1015.5
20260503051346 58 277 1.0 3.0 0.00 0.00 0.00 63 1015.5
20260503050350 59 239 0.0 3.0 0.00 0.00 0.00 65 1015.5
20260503045404 59 246 2.0 4.0 0.00 0.00 0.00 64 1015.4
20260503044349 59 238 1.0 2.0 0.00 0.00 0.00 62 1015.4
20260503043342 59 184 1.0 4.0 0.00 0.00 0.00 62 1015.3
20260503042348 60 207 1.0 3.0 0.00 0.00 0.00 65 1015.3
20260503041402 60 134 1.0 3.0 0.00 0.00 0.00 62 1015.2
20260503040406 61 0.0 2.0 0.00 0.00 0.00 59 1015.1
20260503035412 62 123 0.0 3.0 0.00 0.00 0.00 59 1015.0
20260503034345 62 173 0.0 1.0 0.00 0.00 0.00 54 1014.9
20260503033350 63 135 0.0 1.0 0.00 0.00 0.00 51 1014.7
20260503032344 64 137 1.0 1.0 0.00 0.00 0.00 49 1014.7
20260503031348 65 135 0.0 1.0 0.00 0.00 0.00 48 1014.6
20260503030402 65 0.0 0.0 0.00 0.00 0.00 46 1014.7
20260503025347 66 0.0 0.0 0.00 0.00 0.00 45 1014.5
20260503024411 67 0.0 0.0 0.00 0.00 0.00 45 1014.6
20260503023345 67 0.0 0.0 0.00 0.00 0.00 43 1014.6
20260503022349 68 0.0 0.0 0.00 0.00 0.00 42 1014.6
20260503021343 68 0.0 0.0 0.00 0.00 0.00 43 1014.7
20260503020408 69 0.0 1.0 0.00 0.00 0.00 41 1014.8
20260503015401 69 0.0 0.0 0.00 0.00 0.00 39 1014.8
20260503014346 69 236 0.0 1.0 0.00 0.00 0.00 37 1014.9
20260503013351 70 0.0 1.0 0.00 0.00 0.00 36 1015.0
20260503012345 70 191 0.0 2.0 0.00 0.00 0.00 34 1015.1
20260503011349 71 0.0 0.0 0.00 0.00 0.00 33 1015.1
20260503010342 71 239 1.0 2.0 0.00 0.00 0.00 33 1015.1
20260503005347 71 0.0 0.0 0.00 0.00 0.00 32 1015.2
20260503004341 72 0.0 2.0 0.00 0.00 0.00 31 1015.2
20260503003346 72 50 1.0 2.0 0.00 0.00 0.00 31 1015.2
20260503002411 72 296 1.0 2.0 0.00 0.00 0.00 30 1015.3
20260503001345 73 276 1.0 3.0 0.00 0.00 0.00 31 1015.3
20260503000349 74 301 0.0 1.0 0.00 0.00 0.00 33 1015.4
20260502235343 75 323 0.0 2.0 0.00 0.00 0.00 34 1015.4
20260502234347 75 300 0.0 2.0 0.00 0.00 0.00 35 1015.5
20260502233401 74 260 1.0 2.0 0.00 0.00 0.00 33 1015.7
20260502232346 74 61 1.0 3.0 0.00 0.00 0.00 36 1015.7
20260502231351 73 245 1.0 3.0 0.00 0.00 0.00 37 1015.9
20260502230405 73 309 1.0 3.0 0.00 0.00 0.00 37 1016.1
20260502225349 72 250 1.0 2.0 0.00 0.00 0.00 38 1016.2
20260502224404 72 79 2.0 3.0 0.00 0.00 0.00 37 1016.4
20260502223348 71 146 1.0 5.0 0.00 0.00 0.00 40 1016.7
20260502222342 71 3 0.0 4.0 0.00 0.00 0.00 40 1016.9